SP9KB-14 Weather Reports


time (UTC)temp
F
wind
direction
speed
knots
gust
knots
rain 1hr
in
rain 24hr
in
rain mn
in
humidity
%
barometer
mb
20260902192427 64 186 0.0 0.0 0.00 0.00 0.00 82 1043.1
20260902191927 64 186 0.0 0.0 0.00 0.00 0.00 81 1043.2
20260902191426 64 181 0.0 0.0 0.00 0.00 0.00 81 1043.2
20260902190926 64 175 0.0 0.0 0.00 0.00 0.00 79 1043.3
20260902190426 65 175 0.0 0.0 0.00 0.00 0.00 78 1043.1
20260902185925 65 175 0.0 0.0 0.00 0.00 0.00 78 1043.2
20260902185424 65 175 0.0 0.0 0.00 0.00 0.00 78 1043.0
20260902184924 65 174 0.0 0.0 0.00 0.00 0.00 78 1043.0
20260902184423 64 175 0.0 0.0 0.00 0.00 0.00 79 1043.0
20260902183922 64 174 0.0 0.0 0.00 0.00 0.00 78 1042.9
20260902183422 64 174 0.0 0.0 0.00 0.00 0.00 78 1042.9
20260902182921 65 174 0.0 0.0 0.00 0.00 0.00 78 1043.1
20260902182420 65 175 0.0 0.0 0.00 0.00 0.00 78 1043.2
20260902181920 65 174 0.0 0.0 0.00 0.00 0.00 77 1043.0
20260902181419 65 175 0.0 0.0 0.00 0.00 0.00 77 1043.1
20260902180919 64 175 0.0 0.0 0.00 0.00 0.00 78 1043.1
20260902180418 64 175 0.0 0.0 0.00 0.00 0.00 77 1043.0
20260902175918 65 175 0.0 0.0 0.00 0.00 0.00 76 1043.0
20260902175417 65 175 0.0 0.0 0.00 0.00 0.00 76 1042.9
20260902174917 66 175 0.0 0.0 0.00 0.00 0.00 75 1042.9
20260902174416 66 175 0.0 0.0 0.00 0.00 0.00 74 1043.0
20260902173915 67 175 0.0 0.0 0.00 0.00 0.00 74 1042.9
20260902173415 67 174 0.0 0.0 0.00 0.00 0.00 72 1042.9
20260902172914 68 175 0.0 0.0 0.00 0.00 0.00 72 1043.0
20260902172414 68 175 0.0 0.0 0.00 0.00 0.00 71 1042.8
20260902171352 69 174 0.0 0.0 0.00 0.00 0.00 70 1042.8
20260902170852 69 174 0.0 0.0 0.00 0.00 0.00 71 1042.8
20260902170351 69 174 0.0 0.0 0.00 0.00 0.00 70 1042.7
20260902165851 70 174 0.0 0.0 0.00 0.00 0.00 70 1042.9
20260902165350 70 174 0.0 0.0 0.00 0.00 0.00 69 1042.8
20260902164850 70 174 0.0 0.0 0.00 0.00 0.00 70 1042.9
20260902164349 69 174 0.0 0.0 0.00 0.00 0.00 70 1042.8
20260902163848 69 174 0.0 0.0 0.00 0.00 0.00 69 1042.8
20260902163348 70 174 0.0 0.0 0.00 0.00 0.00 69 1042.8
20260902162847 70 174 0.0 0.0 0.00 0.00 0.00 69 1042.8
20260902162347 70 174 0.0 0.0 0.00 0.00 0.00 68 1042.6
20260902161846 71 177 0.0 0.0 0.00 0.00 0.00 67 1042.9
20260902161346 71 168 0.0 0.0 0.00 0.00 0.00 67 1043.0
20260902160845 71 9 0.0 0.0 0.00 0.00 0.00 67 1042.9
20260902160345 71 191 0.0 0.0 0.00 0.00 0.00 66 1042.9
20260902155844 71 175 0.0 0.0 0.00 0.00 0.00 66 1042.7
20260902155344 72 8 0.9 1.7 0.00 0.00 0.00 65 1042.9
20260902154843 72 169 0.0 0.0 0.00 0.00 0.00 66 1042.8
20260902154342 72 172 0.0 0.0 0.00 0.00 0.00 65 1042.8
20260902153842 72 196 0.0 0.0 0.00 0.00 0.00 65 1042.8
20260902153341 72 13 0.0 0.0 0.00 0.00 0.00 64 1042.8
20260902152841 72 175 0.0 0.0 0.00 0.00 0.00 64 1042.9
20260902152340 73 186 0.0 0.0 0.00 0.00 0.00 64 1042.9
20260902151839 73 212 0.0 0.0 0.00 0.00 0.00 63 1043.2
20260902151339 73 271 0.0 0.0 0.00 0.00 0.00 63 1043.0
20260902150838 73 178 0.0 0.0 0.00 0.00 0.00 62 1043.0
20260902150338 74 5 0.9 1.7 0.00 0.00 0.00 63 1043.2
20260902145837 74 37 0.9 1.7 0.00 0.00 0.00 62 1043.0
20260902145337 73 155 0.9 0.9 0.00 0.00 0.00 62 1043.1
20260902144836 73 303 0.9 1.7 0.00 0.00 0.00 62 1043.2
20260902144336 74 136 1.7 3.5 0.00 0.00 0.00 62 1043.4
20260902143835 74 294 0.9 0.9 0.00 0.00 0.00 61 1043.3
20260902143335 73 36 0.9 0.9 0.00 0.00 0.00 63 1043.2
20260902142834 73 173 0.0 0.0 0.00 0.00 0.00 63 1043.5
20260902142333 73 192 0.0 0.0 0.00 0.00 0.00 62 1043.2
20260902141833 73 296 0.9 1.7 0.00 0.00 0.00 62 1043.3
20260902141332 73 32 1.7 1.7 0.00 0.00 0.00 63 1043.3
20260902140832 74 311 1.7 3.5 0.00 0.00 0.00 62 1043.5
20260902140331 74 194 0.0 0.0 0.00 0.00 0.00 62 1043.7
20260902135831 74 163 0.0 0.0 0.00 0.00 0.00 61 1043.8
20260902135330 74 169 0.0 0.0 0.00 0.00 0.00 62 1043.9
20260902134830 74 161 0.0 0.0 0.00 0.00 0.00 62 1043.7
20260902134329 74 191 0.0 0.0 0.00 0.00 0.00 63 1043.5
20260902133828 74 134 0.0 0.0 0.00 0.00 0.00 62 1043.9
20260902133328 74 145 0.9 1.7 0.00 0.00 0.00 63 1043.8
20260902132828 75 42 1.7 2.6 0.00 0.00 0.00 60 1044.2
20260902132327 75 148 0.9 0.9 0.00 0.00 0.00 59 1044.0
20260902131826 75 178 0.0 0.0 0.00 0.00 0.00 60 1044.2
20260902131326 75 17 0.9 1.7 0.00 0.00 0.00 60 1044.1
20260902130825 74 211 0.9 1.7 0.00 0.00 0.00 62 1044.2
20260902130324 74 213 0.9 1.7 0.00 0.00 0.00 62 1044.2
20260902125824 75 166 1.7 2.6 0.00 0.00 0.00 61 1044.2
20260902125323 75 127 0.9 0.9 0.00 0.00 0.00 62 1044.4
20260902124823 75 183 1.7 3.5 0.00 0.00 0.00 61 1044.1
20260902124322 75 30 0.9 1.7 0.00 0.00 0.00 62 1044.3
20260902123822 74 163 0.9 1.7 0.00 0.00 0.00 63 1044.2
20260902123321 74 126 0.9 0.9 0.00 0.00 0.00 62 1044.1
20260902122821 74 163 0.0 0.0 0.00 0.00 0.00 64 1044.4
20260902122320 75 65 0.9 1.7 0.00 0.00 0.00 62 1044.3
20260902121819 73 151 0.0 0.0 0.00 0.00 0.00 65 1044.2
20260902121319 72 200 0.0 0.0 0.00 0.00 0.00 68 1044.2
20260902120818 71 46 0.9 1.7 0.00 0.00 0.00 69 1044.0
20260902120318 71 30 0.0 1.7 0.00 0.00 0.00 69 1043.9
20260902115817 72 192 0.0 0.0 0.00 0.00 0.00 69 1044.0
20260902115317 73 157 0.0 0.0 0.00 0.00 0.00 67 1044.0
20260902114816 74 195 0.0 0.0 0.00 0.00 0.00 66 1044.2
20260902114315 74 190 0.0 0.9 0.00 0.00 0.00 65 1044.0
20260902113815 73 327 0.9 1.7 0.00 0.00 0.00 61 1044.1
20260902113314 74 48 1.7 2.6 0.00 0.00 0.00 60 1044.1
20260902112814 75 342 0.9 1.7 0.00 0.00 0.00 59 1044.1
20260902112313 74 141 0.0 0.0 0.00 0.00 0.00 61 1044.1
20260902111813 75 222 0.0 0.0 0.00 0.00 0.00 59 1044.0
20260902111312 74 129 0.0 0.9 0.00 0.00 0.00 63 1044.1
20260902110811 75 168 2.6 6.1 0.00 0.00 0.00 61 1044.1
20260902110311 75 86 0.9 1.7 0.00 0.00 0.00 60 1044.2
20260902105810 75 345 0.0 0.9 0.00 0.00 0.00 62 1044.1
20260902105310 74 147 0.0 0.0 0.00 0.00 0.00 63 1044.0
20260902104809 72 169 0.0 0.0 0.00 0.00 0.00 65 1044.1
20260902104309 73 85 0.9 0.9 0.00 0.00 0.00 64 1044.2
20260902103808 74 121 0.0 0.0 0.00 0.00 0.00 64 1044.3
20260902103307 72 161 0.0 0.0 0.00 0.00 0.00 66 1044.5
20260902102807 72 22 1.7 1.7 0.00 0.00 0.00 65 1044.5
20260902102308 73 274 0.9 0.9 0.00 0.00 0.00 65 1044.4
20260902101806 73 199 1.7 2.6 0.00 0.00 0.00 64 1044.3
20260902101305 73 174 0.0 0.0 0.00 0.00 0.00 64 1044.4
20260902100805 73 114 0.9 1.7 0.00 0.00 0.00 64 1044.5
20260902100304 72 184 0.0 0.0 0.00 0.00 0.00 66 1044.3
20260902095803 72 190 2.6 3.5 0.00 0.00 0.00 65 1044.4
20260902095306 73 172 4.3 5.2 0.00 0.00 0.00 64 1044.7
20260902094802 72 265 1.7 2.6 0.00 0.00 0.00 64 1044.5
20260902094302 72 195 0.0 0.0 0.00 0.00 0.00 66 1044.3
20260902093801 71 171 0.0 0.0 0.00 0.00 0.00 67 1044.5
20260902093301 71 202 0.0 0.9 0.00 0.00 0.00 67 1044.7
20260902092800 72 191 2.6 3.5 0.00 0.00 0.00 67 1044.6
20260902092300 72 177 0.9 0.9 0.00 0.00 0.00 67 1044.6
20260902091759 73 299 0.9 1.7 0.00 0.00 0.00 66 1044.6
20260902091258 72 165 0.0 0.9 0.00 0.00 0.00 67 1044.6
20260902090758 73 188 0.0 0.9 0.00 0.00 0.00 67 1044.5
20260902090257 70 185 0.0 0.0 0.00 0.00 0.00 69 1044.8
20260902085757 69 309 0.9 0.9 0.00 0.00 0.00 70 1044.8
20260902085256 69 164 0.0 0.0 0.00 0.00 0.00 72 1044.8
20260902084756 69 148 0.0 0.0 0.00 0.00 0.00 72 1044.6
20260902084255 69 16 1.7 1.7 0.00 0.00 0.00 70 1044.7
20260902083754 70 86 0.9 1.7 0.00 0.00 0.00 70 1044.7
20260902083254 70 49 2.6 3.5 0.00 0.00 0.00 69 1044.8
20260902082753 69 167 0.0 0.0 0.00 0.00 0.00 71 1044.8
20260902082253 69 23 0.0 0.9 0.00 0.00 0.00 71 1044.7
20260902081752 68 163 0.0 0.0 0.00 0.00 0.00 72 1044.8
20260902081252 69 194 1.7 2.6 0.00 0.00 0.00 71 1044.8
20260902080751 69 194 0.0 0.0 0.00 0.00 0.00 71 1044.6
20260902080251 69 137 0.0 0.0 0.00 0.00 0.00 69 1044.7
20260902075750 70 103 0.0 0.0 0.00 0.00 0.00 69 1044.8
20260902075249 69 47 0.9 0.9 0.00 0.00 0.00 69 1044.5
20260902074749 69 149 0.0 0.0 0.00 0.00 0.00 70 1044.6
20260902074248 69 351 0.9 1.7 0.00 0.00 0.00 70 1044.9
20260902073748 69 161 0.9 0.9 0.00 0.00 0.00 69 1044.7
20260902073247 68 165 2.6 3.5 0.00 0.00 0.00 69 1044.6
20260902072747 69 172 1.7 2.6 0.00 0.00 0.00 70 1044.7
20260902072246 68 173 1.7 2.6 0.00 0.00 0.00 72 1044.6
20260902071746 68 165 0.9 1.7 0.00 0.00 0.00 72 1044.5
20260902071245 68 190 0.9 1.7 0.00 0.00 0.00 72 1044.6
20260902070744 67 191 0.9 1.7 0.00 0.00 0.00 72 1044.5
20260902070244 67 165 0.0 0.9 0.00 0.00 0.00 73 1044.4
20260902065743 66 192 0.0 0.9 0.00 0.00 0.00 74 1044.4
20260902065243 66 171 0.0 0.9 0.00 0.00 0.00 74 1044.5
20260902064742 65 181 1.7 2.6 0.00 0.00 0.00 74 1044.4
20260902064242 65 181 0.9 1.7 0.00 0.00 0.00 75 1044.3
20260902063741 65 163 0.0 0.0 0.00 0.00 0.00 76 1044.3
20260902063241 64 190 0.9 1.7 0.00 0.00 0.00 77 1044.4
20260902062740 63 165 0.0 0.0 0.00 0.00 0.00 78 1044.5
20260902062240 62 175 0.9 0.9 0.00 0.00 0.00 79 1044.3
20260902061740 61 169 0.9 1.7 0.00 0.00 0.00 80 1044.4
20260902061238 61 169 0.9 0.9 0.00 0.00 0.00 80 1044.2
20260902060738 61 161 0.9 1.7 0.00 0.00 0.00 81 1044.1
20260902060237 60 318 0.0 0.9 0.00 0.00 0.00 81 1044.2
20260902055737 60 185 0.0 0.0 0.00 0.00 0.00 81 1044.2
20260902055236 60 185 0.0 0.0 0.00 0.00 0.00 82 1044.4
20260902054736 60 181 0.0 0.0 0.00 0.00 0.00 82 1044.3
20260902054235 60 181 0.0 0.0 0.00 0.00 0.00 83 1044.3
20260902053735 60 195 0.9 1.7 0.00 0.00 0.00 82 1044.1
20260902053234 59 180 0.0 0.0 0.00 0.00 0.00 85 1044.3
20260902052734 58 170 0.0 0.0 0.00 0.00 0.00 87 1044.4
20260902052233 57 174 0.0 0.0 0.00 0.00 0.00 92 1044.2
20260902051733 56 177 0.0 0.0 0.00 0.00 0.00 94 1044.0
20260902051232 54 179 0.0 0.0 0.00 0.00 0.00 95 1044.2
20260902050732 54 174 0.0 0.0 0.00 0.00 0.00 96 1043.9
20260902050231 53 196 0.0 0.0 0.00 0.00 0.00 96 1044.1
20260902045730 53 196 0.0 0.0 0.00 0.00 0.00 96 1044.2
20260902045230 53 196 0.0 0.0 0.00 0.00 0.00 96 1044.2
20260902044729 53 195 0.0 0.0 0.00 0.00 0.00 96 1044.2
20260902044229 52 195 0.0 0.0 0.00 0.00 0.00 96 1044.3
20260902043728 52 194 0.0 0.0 0.00 0.00 0.00 96 1044.3
20260902043228 52 194 0.0 0.0 0.00 0.00 0.00 96 1044.3
20260902042727 52 198 0.0 0.0 0.00 0.00 0.00 96 1044.0
20260902042226 52 194 0.0 0.0 0.00 0.00 0.00 96 1044.2
20260902041726 52 190 0.0 0.0 0.00 0.00 0.00 96 1043.8
20260902041225 52 205 0.0 0.0 0.00 0.00 0.00 96 1044.1
20260902040725 52 199 0.0 0.0 0.00 0.00 0.00 96 1044.1
20260902040224 52 198 0.0 0.0 0.00 0.00 0.00 96 1043.9
20260902035724 52 198 0.0 0.0 0.00 0.00 0.00 96 1043.9
20260902035223 52 198 0.0 0.0 0.00 0.00 0.00 96 1044.1
20260902034723 52 198 0.0 0.0 0.00 0.00 0.00 96 1043.8
20260902034222 52 198 0.0 0.0 0.00 0.00 0.00 96 1043.8
20260902033721 52 198 0.0 0.0 0.00 0.00 0.00 96 1044.0
20260902033221 52 198 0.0 0.0 0.00 0.00 0.00 95 1043.8
20260902032720 52 199 0.0 0.0 0.00 0.00 0.00 95 1043.9
20260902032220 52 199 0.0 0.0 0.00 0.00 0.00 95 1043.7
20260902031719 53 200 0.0 0.0 0.00 0.00 0.00 95 1043.9
20260902031219 53 200 0.0 0.0 0.00 0.00 0.00 95 1043.9
20260902030718 53 200 0.0 0.0 0.00 0.00 0.00 95 1043.9
20260902030218 53 194 0.0 0.0 0.00 0.00 0.00 95 1043.9
20260902025717 53 190 0.0 0.0 0.00 0.00 0.00 95 1044.0
20260902025217 53 193 0.0 0.0 0.00 0.00 0.00 95 1043.9
20260902024716 53 200 0.0 0.0 0.00 0.00 0.00 95 1043.6
20260902024216 54 192 0.0 0.0 0.00 0.00 0.00 95 1043.9
20260902023715 54 201 0.0 0.0 0.00 0.00 0.00 96 1043.9
20260902023215 54 190 0.0 0.0 0.00 0.00 0.00 96 1043.8
20260902022714 54 190 0.0 0.0 0.00 0.00 0.00 96 1044.0
20260902022213 53 190 0.0 0.0 0.00 0.00 0.00 96 1044.1
20260902021713 53 190 0.0 0.0 0.00 0.00 0.00 96 1044.0
20260902021212 54 190 0.0 0.0 0.00 0.00 0.00 96 1043.8
20260902020712 54 190 0.0 0.0 0.00 0.00 0.00 96 1044.0
20260902020211 54 190 0.0 0.0 0.00 0.00 0.00 96 1044.0
20260902015711 53 190 0.0 0.0 0.00 0.00 0.00 96 1043.9
20260902015210 53 190 0.0 0.0 0.00 0.00 0.00 96 1043.8
20260902014710 54 190 0.0 0.0 0.00 0.00 0.00 96 1044.1
20260902014209 54 190 0.0 0.0 0.00 0.00 0.00 96 1044.0
20260902013708 54 190 0.0 0.0 0.00 0.00 0.00 96 1044.3
20260902013208 54 190 0.0 0.0 0.00 0.00 0.00 96 1043.9
20260902012707 54 190 0.0 0.0 0.00 0.00 0.00 96 1044.0
20260902012207 54 190 0.0 0.0 0.00 0.00 0.00 95 1044.1
20260902011706 53 191 0.0 0.0 0.00 0.00 0.00 95 1044.0
20260902011205 54 191 0.0 0.0 0.00 0.00 0.00 95 1044.0
20260902010705 53 191 0.0 0.0 0.00 0.00 0.00 95 1044.0
20260902010205 53 191 0.0 0.0 0.00 0.00 0.00 95 1044.2
20260902005704 54 191 0.0 0.0 0.00 0.00 0.00 95 1043.8
20260902005203 54 191 0.0 0.0 0.00 0.00 0.00 95 1043.9
20260902004703 54 191 0.0 0.0 0.00 0.00 0.00 95 1043.8
20260902004202 54 191 0.0 0.0 0.00 0.00 0.00 95 1043.8
20260902003702 54 192 0.0 0.0 0.00 0.00 0.00 95 1044.0
20260902003201 54 192 0.0 0.0 0.00 0.00 0.00 94 1044.0
20260902002701 54 192 0.0 0.0 0.00 0.00 0.00 94 1044.2
20260902002200 54 195 0.0 0.0 0.00 0.00 0.00 94 1044.2
20260902001700 55 195 0.0 0.0 0.00 0.00 0.00 94 1043.9
20260902001159 55 195 0.0 0.0 0.00 0.00 0.00 94 1044.1
20260902000658 55 195 0.0 0.0 0.00 0.00 0.00 94 1044.1
20260902000158 55 208 0.0 0.0 0.00 0.00 0.00 94 1044.1
20260901235657 55 200 0.0 0.0 0.00 0.00 0.00 94 1044.1
20260901235157 55 193 0.0 0.0 0.00 0.00 0.00 94 1044.0
20260901234656 55 203 0.0 0.0 0.00 0.00 0.00 94 1044.0
20260901234156 55 237 0.0 0.0 0.00 0.00 0.00 94 1043.9
20260901233655 55 199 0.0 0.0 0.00 0.00 0.00 94 1044.1
20260901233155 55 215 0.0 0.0 0.00 0.00 0.00 94 1043.8
20260901232654 55 204 0.0 0.0 0.00 0.00 0.00 93 1043.9
20260901232153 55 204 0.0 0.0 0.00 0.00 0.00 93 1043.8
20260901231653 55 204 0.0 0.0 0.00 0.00 0.00 93 1043.8
20260901231152 55 204 0.0 0.0 0.00 0.00 0.00 93 1044.0
20260901230650 55 208 0.0 0.0 0.00 0.00 0.00 93 1044.0
20260901230149 55 204 0.0 0.0 0.00 0.00 0.00 92 1044.0
20260901225649 56 204 0.0 0.0 0.00 0.00 0.00 92 1044.0
20260901225148 56 205 0.0 0.0 0.00 0.00 0.00 92 1044.0
20260901224648 56 197 0.0 0.0 0.00 0.00 0.00 92 1043.9
20260901224147 56 170 0.0 0.0 0.00 0.00 0.00 93 1043.8
20260901223647 56 170 0.0 0.0 0.00 0.00 0.00 92 1043.7
20260901223146 56 170 0.0 0.0 0.00 0.00 0.00 92 1043.9
20260901222646 56 170 0.0 0.0 0.00 0.00 0.00 92 1043.7
20260901222145 56 170 0.0 0.0 0.00 0.00 0.00 92 1043.9
20260901221645 56 170 0.0 0.0 0.00 0.00 0.00 92 1043.8
20260901221144 56 171 0.0 0.0 0.00 0.00 0.00 91 1043.8
20260901220644 56 171 0.0 0.0 0.00 0.00 0.00 91 1044.0
20260901220143 56 171 0.0 0.0 0.00 0.00 0.00 91 1043.9
20260901215642 56 171 0.0 0.0 0.00 0.00 0.00 91 1043.8
20260901215142 57 171 0.0 0.0 0.00 0.00 0.00 91 1043.7
20260901214641 56 171 0.0 0.0 0.00 0.00 0.00 91 1043.6
20260901214141 56 171 0.0 0.0 0.00 0.00 0.00 90 1043.7
20260901213640 57 171 0.0 0.0 0.00 0.00 0.00 90 1043.7
20260901213140 57 171 0.0 0.0 0.00 0.00 0.00 90 1043.7
20260901212640 57 171 0.0 0.0 0.00 0.00 0.00 90 1043.7
20260901212139 57 171 0.0 0.0 0.00 0.00 0.00 90 1044.0
20260901211639 57 171 0.0 0.0 0.00 0.00 0.00 89 1044.0
20260901211138 57 171 0.0 0.0 0.00 0.00 0.00 89 1043.7
20260901210638 58 171 0.0 0.0 0.00 0.00 0.00 89 1043.9
20260901210137 58 171 0.0 0.0 0.00 0.00 0.00 89 1043.8
20260901205637 58 171 0.0 0.0 0.00 0.00 0.00 89 1043.9
20260901205136 58 171 0.0 0.0 0.00 0.00 0.00 89 1043.8
20260901204636 58 171 0.0 0.0 0.00 0.00 0.00 89 1043.9
20260901204135 58 171 0.0 0.0 0.00 0.00 0.00 88 1043.8
20260901203635 58 171 0.0 0.0 0.00 0.00 0.00 88 1043.9
20260901203135 58 171 0.0 0.0 0.00 0.00 0.00 88 1043.8
20260901202634 58 171 0.0 0.0 0.00 0.00 0.00 88 1044.0
20260901202134 58 171 0.0 0.0 0.00 0.00 0.00 88 1043.8
20260901201633 59 171 0.0 0.0 0.00 0.00 0.00 87 1043.9
20260901201133 59 171 0.0 0.0 0.00 0.00 0.00 87 1043.8
20260901200632 59 171 0.0 0.0 0.00 0.00 0.00 86 1043.7
20260901200132 59 171 0.0 0.0 0.00 0.00 0.00 86 1043.6
20260901195631 60 171 0.0 0.0 0.00 0.00 0.00 86 1043.8
20260901195131 60 171 0.0 0.0 0.00 0.00 0.00 85 1043.7
20260901194630 60 171 0.0 0.0 0.00 0.00 0.00 85 1043.8
20260901194130 60 171 0.0 0.0 0.00 0.00 0.00 84 1044.0
20260901193629 61 171 0.0 0.0 0.00 0.00 0.00 84 1043.7
20260901193129 61 171 0.0 0.0 0.00 0.00 0.00 83 1043.6